Location: Eschertshofen
(49.3064°N, 11.5756°E)
Time: 05:08:52
(UTC+00:00)

Cosmos 1674 - Pass Details

Date: 18 September 2020
Orbit: 495 x 517 km, 82.5° (Epoch: 20 October)

Event Time Altitude Azimuth Distance (km) Brightness Sun altitude
Rises 19:02:38 0° 353° (N) 2,653 6.7 -17.1°
Reaches altitude 10° 19:04:49 10° 357° (N) 1,761 5.7 -17.4°
Maximum altitude 19:08:38 61° 78° (ENE) 595 2.7 -18.0°
Enters shadow 19:09:35 45° 134° (SE) 720 2.9 -18.2°
